^^
Datos históricos de la estación: Murcia-Puente Tocinos
Diario Informe para Julio 17, 2019 Unidades:  Inglés    Métrico   Ambas
Diario Semanal Mensual Anual Configurable
  Máximo: Mínimo: Media:
Temperatura: 88.7 °F 74.1 °F 81.1 °F
Punto de rocio: 67.3 °F 57 °F 63.5 °F
Humedad: 75% 35% 57%
Velocidad viento: 13.5mph 0mph 5.3mph
Racha viento: 23mph - -
Viento- - ESE
Presión: 29.9 in 29.8 in -
Precipitación: 0 in    
Historical Graphs
 
 
Tabla de datos para Julio 17, 2019
Hora Temperatura Punto de rocio Presión Viento Velocidad viento Racha viento Humedad Intensidad lluvia(por hora) Nubes
00:04 77.5 °F 66.9 °F 29.9 in NE 4.3 mph 4.6 mph 70% 0 in CLR
00:09 77.5 °F 66.6 °F 29.9 in ENE 2.9 mph 3.5 mph 69% 0 in CLR
00:14 77.5 °F 66.6 °F 29.9 in NNE 2.9 mph 4.3 mph 69% 0 in CLR
00:19 77.5 °F 66.9 °F 29.9 in NE 2.9 mph 4.6 mph 70% 0 in CLR
00:24 77.5 °F 66.9 °F 29.9 in NE 2.9 mph 4.6 mph 70% 0 in CLR
00:29 77.4 °F 66.7 °F 29.9 in NE 3.1 mph 4.7 mph 70% 0 in CLR
00:34 77.4 °F 66.7 °F 29.9 in NE 3.1 mph 3.5 mph 70% 0 in CLR
00:39 77.2 °F 66.6 °F 29.9 in ENE 3.1 mph 4.6 mph 70% 0 in CLR
00:44 77.2 °F 66.6 °F 29.9 in NE 3.1 mph 3.5 mph 70% 0 in CLR
00:49 77.2 °F 66.9 °F 29.9 in North 2 mph 2.9 mph 71% 0 in CLR
00:54 77.2 °F 66.9 °F 29.9 in NE 2 mph 5.4 mph 71% 0 in CLR
00:59 77 °F 66.9 °F 29.9 in NE 2.9 mph 4.6 mph 71% 0 in CLR
01:04 77 °F 66.9 °F 29.9 in NE 2.9 mph 3.6 mph 71% 0 in CLR
01:09 77 °F 66.9 °F 29.9 in NE 2.4 mph 4.6 mph 71% 0 in CLR
01:14 77 °F 66.9 °F 29.9 in NE 2.4 mph 4.6 mph 71% 0 in CLR
01:19 77 °F 67.3 °F 29.9 in NE 3.1 mph 5.8 mph 72% 0 in CLR
01:24 77 °F 67.3 °F 29.9 in ENE 3.1 mph 3.1 mph 72% 0 in CLR
01:29 77.2 °F 66.9 °F 29.9 in ENE 3.1 mph 4.6 mph 71% 0 in CLR
01:34 77.2 °F 66.9 °F 29.9 in NE 3.1 mph 4.6 mph 71% 0 in CLR
01:39 77.2 °F 66.9 °F 29.9 in NE 2.9 mph 4.7 mph 71% 0 in CLR
01:44 77 °F 67.3 °F 29.9 in North 2.9 mph 3.5 mph 72% 0 in CLR
01:49 76.8 °F 67.1 °F 29.9 in ENE 3.1 mph 3.5 mph 72% 0 in CLR
01:54 77 °F 67.3 °F 29.9 in ENE 3.1 mph 3.5 mph 72% 0 in CLR
01:59 76.8 °F 67.1 °F 29.9 in NE 2 mph 3.5 mph 72% 0 in CLR
02:04 76.8 °F 66.7 °F 29.9 in ENE 2 mph 2.4 mph 71% 0 in CLR
02:09 76.8 °F 67.1 °F 29.9 in East 1.8 mph   72% 0 in CLR
02:14 76.8 °F 67.1 °F 29.9 in East 1.8 mph   72% 0 in CLR
02:19 76.8 °F 67.1 °F 29.9 in Calm     72% 0 in CLR
02:24 76.6 °F 66.9 °F 29.9 in Calm   3.5 mph 72% 0 in CLR
02:29 76.6 °F 66.9 °F 29.9 in NNW 1.4 mph 2.3 mph 72% 0 in CLR
02:34 76.5 °F 66.7 °F 29.9 in NNW 1.4 mph 3.5 mph 72% 0 in CLR
02:39 76.3 °F 66.9 °F 29.9 in NNW 1.8 mph   73% 0 in CLR
02:44 76.3 °F 66.9 °F 29.9 in NNW 1.8 mph 3.5 mph 73% 0 in CLR
02:49 76.1 °F 66.7 °F 29.9 in NW 1.4 mph 2.3 mph 73% 0 in CLR
02:54 75.9 °F 66.6 °F 29.9 in NW 1.4 mph 2.3 mph 73% 0 in CLR
02:59 75.9 °F 66.6 °F 29.9 in NW 1.4 mph   73% 0 in CLR
03:04 75.9 °F 66.6 °F 29.9 in NW 1.4 mph 3.5 mph 73% 0 in CLR
03:09 75.9 °F 66.6 °F 29.9 in Calm     73% 0 in CLR
03:14 75.7 °F 66.6 °F 29.9 in Calm     73% 0 in CLR
03:19 75.7 °F 66.6 °F 29.9 in Calm   2 mph 73% 0 in CLR
03:24 75.7 °F 66.6 °F 29.9 in Calm     73% 0 in CLR
03:29 75.7 °F 66.6 °F 29.9 in Calm     73% 0 in CLR
03:34 75.6 °F 66.4 °F 29.9 in Calm     73% 0 in CLR
03:39 75.6 °F 66.4 °F 29.9 in Calm     73% 0 in CLR
03:44 75.6 °F 66.4 °F 29.9 in Calm     73% 0 in CLR
03:49 75.6 °F 66.4 °F 29.9 in Calm     73% 0 in CLR
03:54 75.6 °F 66.4 °F 29.9 in Calm   1.2 mph 73% 0 in CLR
03:59 75.6 °F 66.4 °F 29.9 in Calm     73% 0 in CLR
04:04 75.7 °F 66.6 °F 29.9 in Calm   3.6 mph 73% 0 in CLR
04:09 75.6 °F 66.4 °F 29.9 in NNW 1.8 mph 2.3 mph 73% 0 in CLR
04:14 75.6 °F 66.4 °F 29.9 in NNW 1.8 mph 3.5 mph 73% 0 in CLR
04:19 75.4 °F 66 °F 29.9 in NW 2 mph 3.1 mph 73% 0 in CLR
04:24 75.2 °F 66.4 °F 29.9 in NNE 2 mph 2.9 mph 74% 0 in CLR
04:29 75 °F 66.2 °F 29.9 in NNE 1.8 mph 2.3 mph 74% 0 in CLR
04:34 74.8 °F 66 °F 29.9 in NW 1.8 mph 2.3 mph 74% 0 in CLR
04:39 74.8 °F 66 °F 29.9 in NW 1.4 mph   74% 0 in CLR
04:44 74.8 °F 66 °F 29.9 in NW 1.4 mph 2 mph 74% 0 in CLR
04:49 74.8 °F 66 °F 29.9 in Calm     74% 0 in CLR
04:54 74.8 °F 66 °F 29.9 in Calm   3.5 mph 74% 0 in CLR
04:59 74.8 °F 66 °F 29.9 in SSE 1.8 mph 5.8 mph 74% 0 in CLR
05:04 74.8 °F 66.4 °F 29.9 in South 1.8 mph 4.6 mph 75% 0 in CLR
05:09 74.8 °F 66.4 °F 29.9 in SSE 2.9 mph 4.6 mph 75% 0 in CLR
05:14 74.8 °F 66.4 °F 29.9 in SSE 2.9 mph 4.6 mph 75% 0 in CLR
05:19 74.8 °F 66.4 °F 29.9 in SW 2.4 mph 4.6 mph 75% 0 in CLR
05:24 74.8 °F 66.4 °F 29.9 in WSW 2.4 mph 4.6 mph 75% 0 in CLR
05:29 74.8 °F 66 °F 29.9 in West 2.4 mph 4.6 mph 74% 0 in CLR
05:34 74.8 °F 66 °F 29.9 in WSW 2.4 mph 4.6 mph 74% 0 in CLR
05:39 74.8 °F 66.4 °F 29.9 in SSW 2.9 mph 3.5 mph 75% 0 in CLR
05:44 74.7 °F 66.2 °F 29.9 in WSW 2.9 mph 4.6 mph 75% 0 in CLR
05:49 74.7 °F 65.8 °F 29.9 in SW 2.4 mph 3.5 mph 74% 0 in CLR
05:54 74.8 °F 66 °F 29.9 in WSW 2.4 mph   74% 0 in CLR
05:59 74.8 °F 66 °F 29.9 in WSW 1.4 mph   74% 0 in CLR
06:04 74.8 °F 66 °F 29.9 in WNW 1.4 mph 2.3 mph 74% 0 in CLR
06:09 74.7 °F 65.8 °F 29.9 in Calm   1.4 mph 74% 0 in CLR
06:14 74.7 °F 65.8 °F 29.9 in Calm   3.1 mph 74% 0 in CLR
06:19 74.5 °F 66 °F 29.9 in ESE 2 mph 3.5 mph 75% 0 in CLR
06:24 74.5 °F 66 °F 29.9 in SE 2 mph 4.3 mph 75% 0 in CLR
06:29 74.1 °F 65.7 °F 29.9 in SSE 2.4 mph 3.5 mph 75% 0 in CLR
06:34 74.1 °F 65.7 °F 29.9 in SSW 2.4 mph 4.6 mph 75% 0 in CLR
06:39 74.1 °F 65.7 °F 29.9 in South 2.9 mph 4.6 mph 75% 0 in CLR
06:44 74.1 °F 65.7 °F 29.9 in SSE 2.9 mph 5.8 mph 75% 0 in CLR
06:49 74.1 °F 65.7 °F 29.9 in South 3.6 mph 4.6 mph 75% 0 in CLR
06:54 74.1 °F 65.7 °F 29.9 in South 3.6 mph 4.6 mph 75% 0 in CLR
06:59 74.1 °F 65.7 °F 29.9 in SW 2.9 mph 4.6 mph 75% 0 in CLR
07:04 74.1 °F 65.7 °F 29.9 in SSW 2.9 mph 6.9 mph 75% 0 in CLR
07:09 74.3 °F 65.8 °F 29.9 in SSW 3.6 mph 5.2 mph 75% 0 in CLR
07:14 74.3 °F 65.8 °F 29.9 in SSW 3.6 mph 4.6 mph 75% 0 in CLR
07:19 74.3 °F 65.8 °F 29.9 in WSW 2.9 mph 5.2 mph 75% 0 in CLR
07:24 74.1 °F 65.7 °F 29.9 in WSW 2.9 mph 5.8 mph 75% 0 in CLR
07:29 74.1 °F 65.7 °F 29.9 in SW 3.6 mph 6.9 mph 75% 0 in CLR
07:34 74.1 °F 65.7 °F 29.9 in SW 3.6 mph 4.6 mph 75% 0 in CLR
07:39 74.3 °F 65.5 °F 29.9 in West 3.6 mph 4.6 mph 74% 0 in CLR
07:44 74.5 °F 65.7 °F 29.9 in WNW 3.6 mph 4.6 mph 74% 0 in CLR
07:49 74.5 °F 65.3 °F 29.9 in WSW 2.9 mph 4.6 mph 73% 0 in CLR
07:54 74.5 °F 65.3 °F 29.9 in WSW 2.9 mph 5.8 mph 73% 0 in CLR
07:59 74.5 °F 65.3 °F 29.9 in SW 3.6 mph 4.6 mph 73% 0 in CLR
08:04 74.5 °F 65.3 °F 29.9 in WSW 3.6 mph 4.6 mph 73% 0 in CLR
08:09 74.7 °F 64.9 °F 29.9 in SW 2.9 mph 5.8 mph 72% 0 in CLR
08:14 74.8 °F 65.1 °F 29.9 in SSW 2.9 mph 4.6 mph 72% 0 in CLR
08:19 75 °F 64.9 °F 29.9 in SW 2.9 mph 5.2 mph 71% 0 in CLR
08:24 75.2 °F 64.8 °F 29.9 in WSW 2.9 mph 4.6 mph 70% 0 in CLR
08:29 75.4 °F 64.9 °F 29.9 in West 3.1 mph 4.6 mph 70% 0 in CLR
08:34 75.4 °F 64.9 °F 29.9 in WNW 3.1 mph 4.6 mph 70% 0 in CLR
08:39 75.6 °F 64.2 °F 29.9 in WNW 3.1 mph 5.8 mph 68% 0 in CLR
08:44 75.7 °F 64.8 °F 29.9 in West 3.1 mph 4.6 mph 69% 0 in CLR
08:49 75.7 °F 64.8 °F 29.9 in West 2.9 mph 4.6 mph 69% 0 in CLR
08:54 75.9 °F 64.6 °F 29.9 in WNW 2.9 mph 4.6 mph 68% 0 in CLR
08:59 76.3 °F 64.9 °F 29.9 in West 2.4 mph 4.6 mph 68% 0 in CLR
09:04 76.5 °F 64.8 °F 29.9 in SSW 2.4 mph 4.6 mph 67% 0 in CLR
09:09 76.8 °F 64.9 °F 29.9 in South 2.4 mph 4.6 mph 67% 0 in CLR
09:14 77.2 °F 64.9 °F 29.9 in WSW 2.4 mph 3.6 mph 66% 0 in CLR
09:19 77.5 °F 64.8 °F 29.9 in SSW 2.4 mph 5.8 mph 65% 0 in CLR
09:24 77.7 °F 64.6 °F 29.9 in SW 2.4 mph 4.7 mph 64% 0 in CLR
09:29 78.1 °F 64.6 °F 29.9 in NW 2.4 mph 4.3 mph 63% 0 in CLR
09:34 78.3 °F 64.6 °F 29.9 in West 2.4 mph 4.7 mph 63% 0 in CLR
09:39 78.4 °F 64.8 °F 29.9 in West 2.9 mph 3.5 mph 63% 0 in CLR
09:44 78.6 °F 64 °F 29.9 in West 2.9 mph 6.9 mph 61% 0 in CLR
09:49 78.8 °F 63.7 °F 29.9 in SSW 3.1 mph 5.8 mph 60% 0 in CLR
09:54 79.3 °F 64.8 °F 29.9 in SSE 3.1 mph 4.6 mph 61% 0 in CLR
09:59 79.3 °F 64.8 °F 29.9 in South 3.1 mph 4.6 mph 61% 0 in CLR
10:04 79.3 °F 64.8 °F 29.9 in SSE 3.1 mph 6.9 mph 61% 0 in CLR
10:09 79.5 °F 64.9 °F 29.9 in SE 2.9 mph 4.6 mph 61% 0 in CLR
10:14 80.1 °F 64.9 °F 29.9 in SSE 2.9 mph 3.5 mph 60% 0 in CLR
10:19 80.4 °F 64.2 °F 29.9 in SSE 2.9 mph 4.6 mph 58% 0 in CLR
10:24 80.8 °F 63.7 °F 29.9 in ESE 2.9 mph 6.2 mph 56% 0 in CLR
10:29 81 °F 63.9 °F 29.9 in ENE 4.3 mph 5.8 mph 56% 0 in CLR
10:34 81 °F 62.8 °F 29.9 in SW 4.3 mph 3.5 mph 54% 0 in CLR
10:39 81.7 °F 63 °F 29.9 in ESE 2 mph 5.9 mph 53% 0 in CLR
10:44 82.2 °F 61.7 °F 29.9 in East 2 mph 4.7 mph 50% 0 in CLR
10:49 82.2 °F 61.2 °F 29.9 in NE 4.3 mph 5.8 mph 49% 0 in CLR
10:54 82.6 °F 62.1 °F 29.9 in ENE 4.3 mph 5.8 mph 50% 0 in CLR
10:59 82.9 °F 61.9 °F 29.9 in ESE 3.6 mph 10.4 mph 49% 0 in CLR
11:04 82.9 °F 61.2 °F 29.9 in ESE 3.6 mph 9.2 mph 48% 0 in CLR
11:09 82.9 °F 60.6 °F 29.9 in ENE 5.4 mph 4.7 mph 47% 0 in CLR
11:14 83.1 °F 60.3 °F 29.9 in NNE 5.4 mph 5.8 mph 46% 0 in CLR
11:19 83.7 °F 60.6 °F 29.9 in ESE 3.6 mph 4.6 mph 46% 0 in CLR
11:24 84.4 °F 60.6 °F 29.9 in NNW 3.6 mph 4.6 mph 45% 0 in CLR
11:29 84.7 °F 60.4 °F 29.9 in East 4 mph 6.9 mph 44% 0 in CLR
11:34 84.6 °F 60.3 °F 29.9 in NE 4 mph 10.7 mph 44% 0 in CLR
11:39 84.4 °F 60.1 °F 29.9 in NNW 5.9 mph 5.8 mph 44% 0 in CLR
11:44 84.6 °F 59.5 °F 29.9 in East 5.9 mph 4.6 mph 43% 0 in CLR
11:49 85.3 °F 58.3 °F 29.9 in NE 3.1 mph 8.7 mph 40% 0 in CLR
11:54 85.6 °F 57.7 °F 29.9 in NNE 3.1 mph 6.9 mph 39% 0 in CLR
11:59 85.8 °F 57.9 °F 29.9 in ENE 4.7 mph 11.8 mph 39% 0 in CLR
12:04 85.6 °F 58.5 °F 29.9 in ENE 4.7 mph 8.7 mph 40% 0 in CLR
12:09 86.2 °F 59.7 °F 29.9 in NNE 6.4 mph 6.9 mph 41% 0 in CLR
12:14 86 °F 58.3 °F 29.9 in East 6.4 mph 12.7 mph 39% 0 in CLR
12:19 86.5 °F 59.4 °F 29.9 in NE 6.9 mph 11.2 mph 40% 0 in CLR
12:24 86.5 °F 60.6 °F 29.9 in ENE 6.9 mph 11.5 mph 42% 0 in CLR
12:29 86.4 °F 60.6 °F 29.9 in NE 8.1 mph 10.2 mph 42% 0 in CLR
12:34 86.4 °F 59.2 °F 29.9 in NE 8.1 mph 13.8 mph 40% 0 in CLR
12:39 86.4 °F 58.5 °F 29.9 in North 8.5 mph 14.7 mph 39% 0 in CLR
12:44 86.5 °F 57.2 °F 29.9 in ENE 8.5 mph 17.3 mph 37% 0 in CLR
12:49 86.7 °F 58.1 °F 29.9 in NE 10 mph 11.5 mph 38% 0 in CLR
12:54 86.9 °F 59 °F 29.9 in ENE 10 mph 11.5 mph 39% 0 in CLR
12:59 86.7 °F 60.3 °F 29.9 in NNE 8.5 mph 13 mph 41% 0 in CLR
13:04 86.7 °F 61 °F 29.9 in East 8.5 mph 12.7 mph 42% 0 in CLR
13:09 86.7 °F 61 °F 29.9 in ENE 8.7 mph 12.7 mph 42% 0 in CLR
13:14 86.7 °F 61.5 °F 29.9 in NE 8.7 mph 12.5 mph 43% 0 in CLR
13:19 87.3 °F 61.3 °F 29.9 in ENE 8.7 mph 13.8 mph 42% 0 in CLR
13:24 87.1 °F 61.9 °F 29.9 in NE 8.7 mph 16.8 mph 43% 0 in CLR
13:29 86.7 °F 61.5 °F 29.9 in NE 11.4 mph 21.9 mph 43% 0 in CLR
13:34 87.1 °F 61.2 °F 29.9 in East 11.4 mph 10.4 mph 42% 0 in CLR
13:39 87.4 °F 61.5 °F 29.9 in NNE 10 mph 17.3 mph 42% 0 in CLR
13:44 87.6 °F 61.7 °F 29.9 in NNE 10 mph 12.7 mph 42% 0 in CLR
13:49 88 °F 62.1 °F 29.9 in ENE 9.2 mph 11.5 mph 42% 0 in CLR
13:54 88 °F 61.3 °F 29.9 in ENE 9.2 mph 17.3 mph 41% 0 in CLR
13:59 87.6 °F 61 °F 29.9 in NNE 10.7 mph 20.7 mph 41% 0 in CLR
14:04 88 °F 61.3 °F 29.9 in ENE 10.7 mph 17.3 mph 41% 0 in CLR
14:09 88 °F 60.6 °F 29.9 in NE 10 mph 23 mph 40% 0 in CLR
14:14 88 °F 61.3 °F 29.9 in NE 10 mph 18.4 mph 41% 0 in CLR
14:19 87.6 °F 60.3 °F 29.9 in NE 11.8 mph 17.3 mph 40% 0 in CLR
14:24 87.6 °F 61.7 °F 29.9 in NE 11.8 mph 9.2 mph 42% 0 in CLR
14:29 87.8 °F 61.2 °F 29.9 in NE 10.2 mph 13.8 mph 41% 0 in CLR
14:34 88 °F 61.3 °F 29.9 in NE 10.2 mph 18.4 mph 41% 0 in CLR
14:39 87.4 °F 60.3 °F 29.9 in NE 11.4 mph 12.7 mph 40% 0 in CLR
14:44 88 °F 59.9 °F 29.9 in NE 11.4 mph 15.9 mph 39% 0 in CLR
14:49 88 °F 60.6 °F 29.9 in NE 9.7 mph 13.8 mph 40% 0 in CLR
14:54 87.4 °F 60.3 °F 29.9 in ENE 9.7 mph 17.3 mph 40% 0 in CLR
14:59 88 °F 59.9 °F 29.9 in NNE 10.2 mph 15.6 mph 39% 0 in CLR
15:04 88.2 °F 60.1 °F 29.9 in NE 10.2 mph 12.7 mph 39% 0 in CLR
15:09 87.8 °F 60.4 °F 29.9 in NE 10 mph 18.4 mph 40% 0 in CLR
15:14 87.6 °F 58.8 °F 29.9 in NNE 10 mph 18.4 mph 38% 0 in CLR
15:19 88 °F 60.6 °F 29.9 in NE 11.4 mph 15.9 mph 40% 0 in CLR
15:24 88.5 °F 59.7 °F 29.9 in NNE 11.4 mph 13.8 mph 38% 0 in CLR
15:29 88 °F 60.6 °F 29.9 in NE 9.7 mph 19.6 mph 40% 0 in CLR
15:34 88 °F 58.5 °F 29.9 in NE 9.7 mph 17.3 mph 37% 0 in CLR
15:39 88.2 °F 59.4 °F 29.9 in ESE 10.2 mph 18.4 mph 38% 0 in CLR
15:44 88.3 °F 60.3 °F 29.9 in NNE 10.2 mph 16.3 mph 39% 0 in CLR
15:49 88.5 °F 61.2 °F 29.8 in ENE 9.2 mph 17.3 mph 40% 0 in CLR
15:54 88.3 °F 60.3 °F 29.8 in NE 9.2 mph 18.4 mph 39% 0 in CLR
15:59 87.8 °F 59 °F 29.8 in NNE 12.5 mph 21.9 mph 38% 0 in CLR
16:04 87.8 °F 60.4 °F 29.8 in NE 12.5 mph 20.7 mph 40% 0 in CLR
16:09 87.6 °F 61 °F 29.8 in NNE 13.5 mph 17.3 mph 41% 0 in CLR
16:14 87.8 °F 61.9 °F 29.8 in NNE 13.5 mph 15 mph 42% 0 in CLR
16:19 88.3 °F 61 °F 29.8 in ENE 11.4 mph 16.8 mph 40% 0 in CLR
16:24 88 °F 62.1 °F 29.8 in ENE 11.4 mph 16.3 mph 42% 0 in CLR
16:29 87.8 °F 61.9 °F 29.8 in NE 11.8 mph 16.1 mph 42% 0 in CLR
16:34 88.2 °F 61.5 °F 29.8 in NE 11.8 mph 18.4 mph 41% 0 in CLR
16:39 88.3 °F 60.3 °F 29.8 in ENE 10.2 mph 16.1 mph 39% 0 in CLR
16:44 88.3 °F 59.5 °F 29.8 in NE 10.2 mph 13.8 mph 38% 0 in CLR
16:49 88.7 °F 59.7 °F 29.8 in NE 9.2 mph 15 mph 38% 0 in CLR
16:54 88 °F 59.2 °F 29.8 in East 9.2 mph 14 mph 38% 0 in CLR
16:59 88.3 °F 59.5 °F 29.8 in ENE 10.7 mph 13.8 mph 38% 0 in CLR
17:04 88.3 °F 58.8 °F 29.8 in ENE 10.7 mph 19.6 mph 37% 0 in CLR
17:09 88.3 °F 59.5 °F 29.8 in NE 10 mph 16.3 mph 38% 0 in CLR
17:14 88.3 °F 59.5 °F 29.8 in NE 10 mph 16.3 mph 38% 0 in CLR
17:19 88.2 °F 59.4 °F 29.8 in NNE 10 mph 15 mph 38% 0 in CLR
17:24 88.3 °F 59.5 °F 29.8 in NE 10 mph 10.4 mph 38% 0 in CLR
17:29 88.3 °F 59.5 °F 29.8 in NE 9.2 mph 13.8 mph 38% 0 in CLR
17:34 88.2 °F 59.4 °F 29.8 in NE 9.2 mph 20.7 mph 38% 0 in CLR
17:39 88.3 °F 58.8 °F 29.8 in North 9.2 mph 18.4 mph 37% 0 in CLR
17:44 88.3 °F 57.2 °F 29.8 in ENE 9.2 mph 15 mph 35% 0 in CLR
17:49 88.3 °F 58.8 °F 29.8 in East 9.7 mph 15.2 mph 37% 0 in CLR
17:54 88.2 °F 57.7 °F 29.8 in NE 9.7 mph 10.4 mph 36% 0 in CLR
17:59 88.2 °F 57 °F 29.8 in NE 10.7 mph 18.4 mph 35% 0 in CLR
18:04 88.3 °F 58.8 °F 29.8 in ENE 10.7 mph 12.5 mph 37% 0 in CLR
18:09 88.5 °F 58.3 °F 29.8 in NE 10.2 mph 17.3 mph 36% 0 in CLR
18:14 88.3 °F 57.2 °F 29.8 in NE 10.2 mph 18.4 mph 35% 0 in CLR
18:19 88.2 °F 59.4 °F 29.8 in East 11.2 mph 17.3 mph 38% 0 in CLR
18:24 88 °F 59.2 °F 29.8 in NE 11.2 mph 18.4 mph 38% 0 in CLR
18:29 88 °F 58.5 °F 29.8 in NNE 11.2 mph 16.1 mph 37% 0 in CLR
18:34 87.6 °F 58.8 °F 29.8 in ENE 11.2 mph 17.3 mph 38% 0 in CLR
18:39 87.3 °F 58.6 °F 29.8 in ENE 12.5 mph 17.3 mph 38% 0 in CLR
18:44 87.4 °F 59.4 °F 29.8 in ENE 12.5 mph 13.8 mph 39% 0 in CLR
18:49 87.4 °F 58.6 °F 29.8 in ENE 10.2 mph 12.7 mph 38% 0 in CLR
18:54 87.4 °F 60.3 °F 29.8 in North 10.2 mph 10.4 mph 40% 0 in CLR
18:59 87.4 °F 59.4 °F 29.8 in NE 8.1 mph 12.7 mph 39% 0 in CLR
19:04 86.9 °F 60.4 °F 29.8 in NE 8.1 mph 15 mph 41% 0 in CLR
19:09 86.5 °F 59.4 °F 29.8 in NE 10.2 mph 17.3 mph 40% 0 in CLR
19:14 86.5 °F 60.1 °F 29.8 in NNE 10.2 mph 11.5 mph 41% 0 in CLR
19:19 86.4 °F 60.6 °F 29.8 in ENE 9.7 mph 11.5 mph 42% 0 in CLR
19:24 85.8 °F 60.6 °F 29.8 in ENE 9.7 mph 16.1 mph 43% 0 in CLR
19:29 85.6 °F 61.2 °F 29.8 in ENE 8.1 mph 13.8 mph 44% 0 in CLR
19:34 85.5 °F 60.4 °F 29.8 in East 8.1 mph 11.5 mph 43% 0 in CLR
19:39 85.5 °F 60.4 °F 29.8 in ENE 6.9 mph 8.1 mph 43% 0 in CLR
19:44 85.5 °F 61.2 °F 29.8 in NE 6.9 mph 8.1 mph 44% 0 in CLR
19:49 85.3 °F 61 °F 29.8 in ESE 4 mph 5.2 mph 44% 0 in CLR
19:54 85.3 °F 61.5 °F 29.8 in ESE 4 mph 5.9 mph 45% 0 in CLR
19:59 84.9 °F 60.6 °F 29.8 in SSE 5.2 mph 6.9 mph 44% 0 in CLR
20:04 85.1 °F 61.3 °F 29.8 in ESE 5.2 mph 4.7 mph 45% 0 in CLR
20:09 85.1 °F 60.6 °F 29.8 in East 4.7 mph 9.2 mph 44% 0 in CLR
20:14 84.7 °F 59.7 °F 29.8 in ESE 4.7 mph 11.8 mph 43% 0 in CLR
20:19 84.7 °F 60.4 °F 29.8 in ESE 6.4 mph 10.4 mph 44% 0 in CLR
20:24 84.4 °F 61.3 °F 29.8 in SE 6.4 mph 9.2 mph 46% 0 in CLR
20:29 84 °F 61 °F 29.8 in SE 6.9 mph 9.2 mph 46% 0 in CLR
20:34 84 °F 61.5 °F 29.9 in East 6.9 mph 6.9 mph 47% 0 in CLR
20:39 84 °F 62.8 °F 29.9 in SSE 5.9 mph 10.4 mph 49% 0 in CLR
20:44 83.7 °F 63 °F 29.9 in East 5.9 mph 9.2 mph 50% 0 in CLR
20:49 83.5 °F 63.3 °F 29.9 in SE 5.9 mph 9.2 mph 51% 0 in CLR
20:54 83.1 °F 63.7 °F 29.9 in SE 5.9 mph 8.1 mph 52% 0 in CLR
20:59 82.8 °F 63.9 °F 29.9 in ESE 5.9 mph 8.1 mph 53% 0 in CLR
21:04 82.6 °F 63.7 °F 29.9 in ESE 5.9 mph 8.1 mph 53% 0 in CLR
21:09 82.4 °F 64 °F 29.9 in ESE 5.4 mph 5.8 mph 54% 0 in CLR
21:14 82 °F 63.9 °F 29.9 in North 5.4 mph 6.9 mph 54% 0 in CLR
21:19 81.9 °F 64 °F 29.9 in NE 4.7 mph 6.9 mph 55% 0 in CLR
21:24 81.7 °F 64.6 °F 29.9 in NE 4.7 mph 6.9 mph 56% 0 in CLR
21:29 81.3 °F 64.6 °F 29.9 in NNE 4.7 mph 6.9 mph 57% 0 in CLR
21:34 81.1 °F 64.6 °F 29.9 in ESE 4.7 mph 5.8 mph 57% 0 in CLR
21:39 81 °F 64.8 °F 29.9 in NNE 4 mph 5.8 mph 58% 0 in CLR
21:44 80.8 °F 64.6 °F 29.9 in East 4 mph 5.8 mph 58% 0 in CLR
21:49 80.8 °F 65.1 °F 29.9 in ENE 2.4 mph 5.8 mph 59% 0 in CLR
21:54 80.6 °F 64.9 °F 29.9 in ESE 2.4 mph 4.6 mph 59% 0 in CLR
21:59 80.4 °F 64.8 °F 29.9 in East 2.4 mph 3.5 mph 59% 0 in CLR
22:04 80.4 °F 64.8 °F 29.9 in NNE 2.4 mph 5.8 mph 59% 0 in CLR
22:09 80.2 °F 65.1 °F 29.9 in East 2.4 mph 4.6 mph 60% 0 in CLR
22:14 80.2 °F 65.7 °F 29.9 in NE 2.4 mph 5.8 mph 61% 0 in CLR
22:19 80.1 °F 65.5 °F 29.9 in ESE 2.4 mph 3.1 mph 61% 0 in CLR
22:24 80.1 °F 65.8 °F 29.9 in NE 2.4 mph 4.6 mph 62% 0 in CLR
22:29 79.9 °F 65.7 °F 29.9 in NE 2.9 mph 6.4 mph 62% 0 in CLR
22:34 79.7 °F 65.5 °F 29.9 in North 2.9 mph 5.9 mph 62% 0 in CLR
22:39 79.3 °F 65.1 °F 29.9 in North 4.3 mph 6.9 mph 62% 0 in CLR
22:44 79.2 °F 65.5 °F 29.9 in NNE 4.3 mph 6.9 mph 63% 0 in CLR
22:49 79 °F 65.8 °F 29.9 in North 5.2 mph 5.8 mph 64% 0 in CLR
22:54 78.8 °F 66 °F 29.9 in NNE 5.2 mph 8.1 mph 65% 0 in CLR
22:59 78.6 °F 65.8 °F 29.9 in NE 5.4 mph 8.1 mph 65% 0 in CLR
23:04 78.4 °F 66 °F 29.9 in ENE 5.4 mph 8.1 mph 66% 0 in CLR
23:09 78.3 °F 66.4 °F 29.9 in NE 5.4 mph 9.2 mph 67% 0 in CLR
23:14 78.3 °F 66.4 °F 29.9 in NE 5.4 mph 6.9 mph 67% 0 in CLR
23:19 78.1 °F 66.7 °F 29.9 in NE 5.2 mph 8.1 mph 68% 0 in CLR
23:24 78.1 °F 67.1 °F 29.9 in ENE 5.2 mph 5.8 mph 69% 0 in CLR
23:29 77.7 °F 66.7 °F 29.9 in NE 4.3 mph 8.1 mph 69% 0 in CLR
23:34 77.5 °F 66.9 °F 29.9 in ENE 4.3 mph 9.2 mph 70% 0 in CLR
23:39 77.4 °F 67.3 °F 29.9 in NE 5.9 mph 8.5 mph 71% 0 in CLR
23:44 76.8 °F 66.7 °F 29.9 in NE 5.9 mph 11.5 mph 71% 0 in CLR
23:49 76.6 °F 66.9 °F 29.9 in ENE 7.4 mph 10.4 mph 72% 0 in CLR
23:54 76.6 °F 66.9 °F 29.9 in NE 7.4 mph 10 mph 72% 0 in CLR
23:59 76.6 °F 66.9 °F 29.9 in ENE 7.4 mph 8.1 mph 72% 0 in CLR
Murcia-Puente Tocinos, España
Compliments of Weather Underground - 2.75 mb

La estación de MeteoMurcia.com, publica sus datos en los siguientes proyectos:

Weather Underground PWS IMURCIAP2 Meteoclimatic www.awekas.at

W3Counter
Web Analytics